SWR910 LSZH-EDDF

Flight info

Callsign SWR910
Flight time N/A
Altitude 20000
Route DEGES Z1 SUDEN T164 KOVAN T163 SPESA SPESA4B
Aircraft A20N/M-SDE2E3FGHIRWXY/LB1

Departure

Time 2026-02-17 16:10
Airport Zürich Airport (LSZH)

Arrival

Time N/A
Airport Frankfurt Main Airport (EDDF)
Time Latitude Longitude Altitude Speed Heading
2026-02-17 15:49 47.45353 8.55646 1397 ft 0 kts
2026-02-17 15:57 47.45345 8.55645 1397 ft 2 kts
2026-02-17 15:57 47.45325 8.55644 1400 ft 3 kts 359°
2026-02-17 15:57 47.45305 8.55645 1405 ft 3 kts 352°
2026-02-17 15:57 47.45285 8.55651 1400 ft 3 kts 334°
2026-02-17 15:58 47.45271 8.55665 1404 ft 2 kts 287°
2026-02-17 15:58 47.45269 8.55677 1403 ft 1 kts 276°
2026-02-17 15:58 47.45269 8.55679 1390 ft 0 kts 276°
2026-02-17 16:03 47.45269 8.55677 1404 ft 1 kts 276°
2026-02-17 16:03 47.45271 8.55649 1397 ft 5 kts 272°
2026-02-17 16:03 47.45279 8.55583 1402 ft 8 kts 301°
2026-02-17 16:04 47.45335 8.55535 1403 ft 12 kts 334°
2026-02-17 16:04 47.45424 8.55473 1406 ft 16 kts 334°
2026-02-17 16:04 47.45539 8.55395 1400 ft 20 kts 334°
2026-02-17 16:04 47.45638 8.55338 1400 ft 11 kts
2026-02-17 16:05 47.45667 8.55434 1397 ft 12 kts 93°
2026-02-17 16:05 47.45657 8.55587 1396 ft 18 kts 96°
2026-02-17 16:05 47.45647 8.55733 1405 ft 14 kts 96°
2026-02-17 16:05 47.45633 8.55909 1397 ft 20 kts 96°
2026-02-17 16:06 47.45627 8.56031 1396 ft 13 kts 95°
2026-02-17 16:06 47.45614 8.56197 1399 ft 16 kts 95°
2026-02-17 16:06 47.45732 8.56282 1403 ft 12 kts
2026-02-17 16:07 47.45828 8.56296 1404 ft 16 kts
2026-02-17 16:07 47.45947 8.56312 1402 ft 18 kts
2026-02-17 16:07 47.46087 8.56335 1400 ft 23 kts
2026-02-17 16:07 47.46190 8.56343 1397 ft 10 kts 351°
2026-02-17 16:08 47.46236 8.56301 1403 ft 0 kts 315°
2026-02-17 16:10 47.46480 8.55967 1393 ft 102 kts 319°
2026-02-17 16:10 47.48103 8.53798 2725 ft 168 kts 313°
2026-02-17 16:11 47.48960 8.52632 3836 ft 169 kts 313°
2026-02-17 16:11 47.49874 8.51421 4561 ft 184 kts 317°
2026-02-17 16:11 47.51002 8.50380 5303 ft 197 kts 326°
2026-02-17 16:11 47.52209 8.49409 6472 ft 194 kts 316°
2026-02-17 16:12 47.53001 8.47885 7944 ft 187 kts 294°
2026-02-17 16:12 47.53374 8.46023 9252 ft 193 kts 277°
2026-02-17 16:12 47.53292 8.43992 10374 ft 210 kts 258°
2026-02-17 16:12 47.52483 8.42017 11199 ft 247 kts 231°
2026-02-17 16:13 47.50883 8.40584 11748 ft 297 kts 207°
2026-02-17 16:13 47.48667 8.40133 12151 ft 347 kts 182°
2026-02-17 16:13 47.46249 8.41074 13087 ft 373 kts 159°
2026-02-17 16:13 47.44078 8.43319 14113 ft 392 kts 137°
2026-02-17 16:14 47.42490 8.46634 15335 ft 400 kts 114°
2026-02-17 16:14 47.41683 8.50567 16593 ft 403 kts 93°
2026-02-17 16:14 47.42508 8.58347 18078 ft 384 kts 55°
2026-02-17 16:15 47.43921 8.61699 18788 ft 385 kts 47°
2026-02-17 16:15 47.45288 8.65161 19474 ft 398 kts 58°
2026-02-17 16:15 47.46080 8.69187 19809 ft 417 kts 74°
2026-02-17 16:15 47.46228 8.73522 19946 ft 428 kts 86°
2026-02-17 16:16 47.45967 8.77938 19965 ft 433 kts 92°
2026-02-17 16:16 47.45528 8.82256 19963 ft 434 kts 94°
2026-02-17 16:16 47.45010 8.86732 19967 ft 435 kts 95°
2026-02-17 16:16 47.44496 8.91134 19969 ft 435 kts 95°
2026-02-17 16:17 47.43992 8.95534 19967 ft 434 kts 94°
2026-02-17 16:17 47.43499 8.99937 19966 ft 434 kts 94°
2026-02-17 16:17 47.43010 9.04335 19965 ft 434 kts 94°
2026-02-17 16:17 47.42529 9.08682 19966 ft 434 kts 94°
2026-02-17 16:18 47.42035 9.13145 19956 ft 434 kts 94°
2026-02-17 16:18 47.41694 9.17479 19953 ft 427 kts 84°
2026-02-17 16:18 47.43216 9.25548 19950 ft 399 kts 52°
2026-02-17 16:19 47.44610 9.29087 19945 ft 398 kts 50°
2026-02-17 16:19 47.46017 9.32605 19945 ft 398 kts 51°